Location: Bucquoy
(50.1391°N, 2.7097°E)
Time: 02:20:03
(UTC+00:00)

Lacrosse 5 - Pass Details

Date: 06 May 2021
Orbit: 715 x 724 km, 57.0° (Epoch: 15 June)

Event Time Altitude Azimuth Distance (km) Brightness Sun altitude
Exits shadow 01:45:03 16° 154° (SSE) 1,838 3.7 -18.3°
Maximum altitude 01:47:03 19° 124° (SE) 1,651 3.7 -18.2°
Drops below altitude 10° 01:50:36 10° 80° (E) 2,205 4.9 -17.9°
Sets 01:53:33 0° 63° (ENE) 3,132 6.2 -17.6°
